Panama City Beach Gulf Coast Weather Center

Moon Phase Calendar



Online Cameras

 


      

Current Conditions in Panama City
4/12/2024 4:31:03 PM

73°F
Feels Like 72
Clear
Humidity
51%
Pressure
30.09"
Wind
18.4 mph (W)
Dew Point
53°F
UV Index
1/10 (Low)
Visibility
6 mi

Hourly Forecast

Date & Time Fri, Apr 12
4:00 PM
Fri, Apr 12
5:00 PM
Fri, Apr 12
6:00 PM
Fri, Apr 12
7:00 PM
Fri, Apr 12
8:00 PM
Fri, Apr 12
9:00 PM
Fri, Apr 12
10:00 PM
Fri, Apr 12
11:00 PM
Sat, Apr 13
12:00 AM
Sat, Apr 13
1:00 AM
Sat, Apr 13
2:00 AM
Sat, Apr 13
3:00 AM
Sat, Apr 13
4:00 AM
Sat, Apr 13
5:00 AM
Sat, Apr 13
6:00 AM
Sat, Apr 13
7:00 AM
Sat, Apr 13
8:00 AM
Sat, Apr 13
9:00 AM
Sat, Apr 13
10:00 AM
Sat, Apr 13
11:00 AM
Sat, Apr 13
12:00 PM
Sat, Apr 13
1:00 PM
Sat, Apr 13
2:00 PM
Sat, Apr 13
3:00 PM
Sat, Apr 13
4:00 PM
Sat, Apr 13
5:00 PM
Sat, Apr 13
6:00 PM
Sat, Apr 13
7:00 PM
Sat, Apr 13
8:00 PM
Sat, Apr 13
9:00 PM
Sat, Apr 13
10:00 PM
Sat, Apr 13
11:00 PM
Sun, Apr 14
12:00 AM
Sun, Apr 14
1:00 AM
Sun, Apr 14
2:00 AM
Sun, Apr 14
3:00 AM
Sun, Apr 14
4:00 AM
Sun, Apr 14
5:00 AM
Sun, Apr 14
6:00 AM
Sun, Apr 14
7:00 AM
Sun, Apr 14
8:00 AM
Sun, Apr 14
9:00 AM
Sun, Apr 14
10:00 AM
Sun, Apr 14
11:00 AM
Sun, Apr 14
12:00 PM
Sun, Apr 14
1:00 PM
Sun, Apr 14
2:00 PM
Sun, Apr 14
3:00 PM
Condition
Clear

Clear

Clear

Clear

Clear

Clear

Clear

Clear

Clouds

Clouds

Clear

Clouds

Clear

Clear

Clear

Clear

Clear

Clear

Clear

Clear

Clear

Clouds

Clouds

Clouds

Clouds

Clouds

Clouds

Clouds

Clear

Clear

Clear

Clear

Clear

Clear

Clear

Clear

Clear

Clear

Clear

Clear

Clear

Clear

Clear

Clear

Clear

Clear

Clear

Clouds
Temperature 73°F73°F73°F71°F69°F67°F63°F62°F61°F61°F59°F58°F57°F56°F55°F55°F59°F64°F69°F72°F74°F76°F76°F76°F74°F73°F71°F68°F66°F66°F65°F65°F64°F64°F63°F63°F62°F62°F61°F62°F66°F70°F73°F74°F75°F74°F74°F74°F
Feels Like 72°F72°F72°F70°F68°F65°F62°F61°F60°F59°F58°F56°F55°F54°F53°F53°F58°F62°F67°F70°F73°F74°F75°F75°F73°F72°F70°F67°F65°F65°F64°F64°F63°F63°F62°F62°F61°F61°F61°F61°F65°F69°F72°F74°F74°F74°F74°F74°F
Cloudiness 0%0%0%0%4%8%9%9%16%16%7%11%9%6%5%4%0%0%0%2%3%11%71%67%76%74%81%68%0%0%2%1%2%2%3%3%2%2%2%2%0%0%0%1%2%2%9%14%
Visibility 6 mi6 mi6 mi6 mi6 mi6 mi6 mi6 mi6 mi6 mi6 mi6 mi6 mi6 mi6 mi6 mi6 mi6 mi6 mi6 mi6 mi6 mi6 mi6 mi6 mi6 mi6 mi6 mi6 mi6 mi6 mi6 mi6 mi6 mi6 mi6 mi6 mi6 mi6 mi6 mi6 mi6 mi6 mi6 mi6 mi6 mi6 mi6 mi
Precipitation 0%0%0%0%0%0%0%0%0%0%0%0%0%0%0%0%0%0%0%0%0%0%0%0%0%0%0%0%0%0%0%0%0%0%0%0%0%0%0%0%0%0%0%0%0%0%0%0%
Humidity 48%51%48%47%46%46%51%55%55%52%52%54%57%59%60%60%51%41%32%29%28%27%29%33%37%40%46%54%58%60%62%65%67%68%68%69%70%70%70%68%60%52%47%44%43%45%45%47%
Dew Point 52°F53°F52°F50°F48°F45°F45°F46°F45°F43°F42°F42°F42°F42°F41°F42°F41°F40°F37°F38°F39°F39°F41°F44°F46°F47°F49°F51°F51°F51°F52°F53°F53°F53°F53°F53°F52°F52°F51°F52°F52°F51°F51°F50°F50°F51°F51°F52°F
Pressure 30.09"30.09"30.09"30.12"30.15"30.21"30.24"30.27"30.27"30.27"30.27"30.27"30.27"30.3"30.3"30.33"30.33"30.33"30.33"30.33"30.3"30.3"30.27"30.24"30.21"30.21"30.24"30.24"30.24"30.27"30.27"30.24"30.24"30.24"30.21"30.21"30.21"30.21"30.21"30.24"30.24"30.24"30.24"30.24"30.24"30.21"30.18"30.15"
Wind Speed 13.2 mph12.4 mph10.3 mph8.6 mph6.8 mph6.8 mph6.6 mph7 mph7.9 mph10 mph9.6 mph9.1 mph8.8 mph8 mph6.6 mph7.5 mph7.9 mph8.8 mph7.7 mph7 mph4.7 mph4.1 mph4.1 mph5.7 mph6.4 mph6 mph6 mph6.6 mph5.5 mph5.2 mph4.8 mph4.2 mph3.6 mph3 mph2.5 mph2.7 mph2.2 mph2.1 mph2.5 mph3.5 mph3.1 mph2.8 mph3.6 mph6.8 mph10.2 mph11.3 mph10.8 mph10.9 mph
Wind
Direction
275°
W
290°
WNW
300°
WNW
303°
WNW
318°
NW
349°
N

N
358°
N
349°
N
343°
NNW
349°
N
358°
N

N

N

N
15°
NNE
23°
NNE
25°
NNE
31°
NNE
27°
NNE
23°
NNE
357°
N
318°
NW
279°
W
267°
W
268°
W
260°
W
252°
WSW
267°
W
277°
W
277°
W
282°
WNW
290°
WNW
297°
WNW
311°
NW
326°
NW
335°
NNW
32°
NNE
29°
NNE
60°
ENE
72°
ENE
106°
ESE
156°
SSE
183°
S
197°
SSW
197°
SSW
194°
SSW
197°
SSW

Daily Forecast

Date High Low Precip. Humidity
Today
Apr 12

Clear
74 °F
60 °F
0%
36%
Saturday
Apr 13

Clear
76 °F
55 °F
0%
28%
Sunday
Apr 14

Clear
75 °F
61 °F
0%
43%
Monday
Apr 15

Clouds
76 °F
62 °F
0%
42%
Tuesday
Apr 16

Clouds
78 °F
64 °F
0%
55%
Wednesday
Apr 17

Clouds
76 °F
68 °F
0%
66%
Thursday
Apr 18

Clear
78 °F
69 °F
0%
63%
Friday
Apr 19

Rain
76 °F
65 °F
20%
74%
Saturday
Apr 20

Clouds
70 °F
55 °F
0%
29%
Sunday
Apr 21

Clouds
74 °F
53 °F
0%
25%
Monday
Apr 22

Rain
75 °F
59 °F
100%
61%
Tuesday
Apr 23

Rain
74 °F
63 °F
20%
66%
Wednesday
Apr 24

Clear
82 °F
66 °F
0%
53%
Thursday
Apr 25

Clear
85 °F
69 °F
0%
47%
Friday
Apr 26

Rain
83 °F
68 °F
77%
53%
Saturday
Apr 27

Rain
77 °F
68 °F
51%
53%

Temperature 8-14 Day Outlook



Precipitation 8-14 Day Outlook




Quick Links
Panama City Beach Gulf Coast News
Panama City Beach Gulf Coast Photos
Panama City Beach Gulf Coast Videos




About Us
Contact Us
Site Map
Search Site
Advertise With Us
   
PanamaCity.USGulf.info
THE PANAMA CITY BEACH GULF COAST WEBSITE

Copyright 2024, Coastal Town
Privacy    |    Legal